Tracking 17155 objects as of 30-July-2015
HD Live streaming from Space Station

SL-3 DEB

Track SL-3 DEB now!
10-day predictions
SL-3 DEB is classified as:


NORAD ID: 14928
Int'l Code: 1983-075F
Perigee: 517.6 km
Apogee: 565.8 km
Inclination: 97.8 °
Period: 95.3 minutes
Semi major axis: 6912 km
RCS: 0.0341 m2 (small)
Launch date: July 24, 1983
Source: Commonwealth of Independent States (former USSR) (CIS)

Note: This is SATELLITE DEBRIS
Your satellite tracking list
Your tracking list is empty





NASA's NSSDC Master Catalog

Two Line Element Set (TLE):
1 14928U 83075F   15210.81878800  .00000957  00000-0  61432-4 0  9997
2 14928 097.7969 331.7250 0034863 049.5259 101.4539 15.10542457716395

Source of the keplerian elements: AFSPC

N2YO: 216